| time (UTC) | temp F | wind direction | speed MPH | gust MPH | rain 1hr in | rain 24hr in | rain mn in | humidity % | barometer mb |
| 20260502152200 | 48 | 50 | 4.0 | 11.0 | 0.00 | 0.27 | 0.00 | 73 | 1027.3 |
| 20260502151650 | 48 | 50 | 5.0 | 12.0 | 0.00 | 0.27 | 0.00 | 73 | 1027.0 |
| 20260502151147 | 48 | 56 | 4.0 | 12.0 | 0.00 | 0.27 | 0.00 | 74 | 1027.0 |
| 20260502150647 | 47 | 31 | 4.0 | 9.0 | 0.00 | 0.27 | 0.00 | 79 | 1026.8 |
| 20260502150135 | 47 | 31 | 5.0 | 10.0 | 0.00 | 0.27 | 0.00 | 81 | 1026.7 |
| 20260502140109 | 42 | 38 | 3.0 | 9.0 | 0.00 | 0.27 | 0.00 | 93 | 1024.2 |
| 20260502130529 | 36 | 223 | 1.0 | 5.0 | 0.00 | 0.27 | 0.00 | 97 | 1021.5 |
| 20260502123511 | 32 | 216 | 0.0 | 2.0 | 0.00 | 0.27 | 0.00 | 96 | 1019.0 |
| 20260502123017 | 32 | 216 | 0.0 | 1.0 | 0.00 | 0.27 | 0.00 | 95 | 1018.9 |
| 20260502122511 | 32 | 216 | 0.0 | 1.0 | 0.00 | 0.27 | 0.00 | 95 | 1018.9 |
| 20260502122008 | 32 | 216 | 0.0 | 1.0 | 0.00 | 0.27 | 0.00 | 95 | 1018.9 |
| 20260502121507 | 32 | 216 | 0.0 | 1.0 | 0.00 | 0.27 | 0.00 | 95 | 1018.9 |
| 20260502121005 | 32 | 216 | 0.0 | 1.0 | 0.00 | 0.27 | 0.00 | 95 | 1018.9 |
| 20260502120459 | 33 | 216 | 0.0 | 0.0 | 0.00 | 0.27 | 0.00 | 95 | 1019.0 |
| 20260502120432 | 33 | 216 | 0.0 | 0.0 | 0.00 | 0.27 | 0.00 | 95 | 1019.0 |
| 20260502115445 | 33 | 216 | 0.0 | 1.0 | 0.00 | 0.27 | 0.00 | 95 | 1019.1 |
| 20260502114931 | 33 | 216 | 0.0 | 1.0 | 0.00 | 0.27 | 0.00 | 95 | 1019.3 |
| 20260502114430 | 33 | 216 | 0.0 | 1.0 | 0.00 | 0.27 | 0.00 | 95 | 1019.1 |
| 20260502113931 | 33 | 216 | 0.0 | 1.0 | 0.00 | 0.27 | 0.00 | 95 | 1019.3 |
| 20260502113649 | 33 | 216 | 0.0 | 1.0 | 0.00 | 0.27 | 0.00 | 95 | 1019.3 |
| 20260502113408 | 33 | 216 | 0.0 | 0.0 | 0.00 | 0.27 | 0.00 | 95 | 1019.5 |
| 20260502112637 | 33 | 216 | 0.0 | 1.0 | 0.00 | 0.27 | 0.00 | 95 | 1019.4 |
| 20260502111911 | 33 | 216 | 0.0 | 1.0 | 0.00 | 0.27 | 0.00 | 94 | 1019.4 |
| 20260502111409 | 34 | 216 | 0.0 | 0.0 | 0.00 | 0.27 | 0.00 | 94 | 1019.6 |
| 20260502110903 | 34 | 216 | 0.0 | 0.0 | 0.00 | 0.27 | 0.00 | 94 | 1019.9 |
| 20260502110402 | 34 | 216 | 0.0 | 0.0 | 0.00 | 0.27 | 0.00 | 94 | 1019.9 |
| 20260502105910 | 35 | 216 | 0.0 | 1.0 | 0.00 | 0.27 | 0.00 | 95 | 1020.1 |
| 20260502105357 | 35 | 216 | 0.0 | 1.0 | 0.00 | 0.27 | 0.00 | 95 | 1020.1 |
| 20260502104852 | 35 | 216 | 0.0 | 0.0 | 0.00 | 0.27 | 0.00 | 95 | 1020.1 |
| 20260502104349 | 35 | 216 | 0.0 | 0.0 | 0.00 | 0.27 | 0.00 | 95 | 1020.0 |
| 20260502103830 | 36 | 216 | 0.0 | 0.0 | 0.00 | 0.27 | 0.00 | 95 | 1020.1 |
| 20260502103818 | 36 | 216 | 0.0 | 0.0 | 0.00 | 0.27 | 0.00 | 95 | 1020.1 |
| 20260502102822 | 36 | 216 | 0.0 | 0.0 | 0.00 | 0.27 | 0.00 | 96 | 1020.0 |
| 20260502102321 | 36 | 216 | 0.0 | 0.0 | 0.00 | 0.27 | 0.00 | 96 | 1020.1 |
| 20260502101814 | 36 | 216 | 0.0 | 0.0 | 0.00 | 0.27 | 0.00 | 95 | 1020.0 |
| 20260502101304 | 35 | 216 | 0.0 | 0.0 | 0.00 | 0.27 | 0.00 | 95 | 1019.9 |
| 20260502100802 | 35 | 216 | 0.0 | 0.0 | 0.00 | 0.27 | 0.00 | 95 | 1019.7 |
| 20260502100258 | 35 | 216 | 0.0 | 0.0 | 0.00 | 0.27 | 0.00 | 94 | 1019.5 |
| 20260502091202 | 38 | 216 | 0.0 | 2.0 | 0.00 | 0.27 | 0.00 | 96 | 1020.5 |
| 20260502090929 | 38 | 216 | 0.0 | 2.0 | 0.00 | 0.27 | 0.00 | 96 | 1020.6 |
| 20260502090426 | 38 | 216 | 0.0 | 2.0 | 0.00 | 0.27 | 0.00 | 96 | 1020.6 |
| 20260502071526 | 38 | 216 | 2.0 | 5.0 | 0.00 | 0.30 | 0.00 | 95 | 1020.8 |
| 20260502071025 | 38 | 216 | 2.0 | 6.0 | 0.00 | 0.30 | 0.00 | 95 | 1020.8 |
| 20260502070526 | 38 | 216 | 2.0 | 6.0 | 0.00 | 0.30 | 0.00 | 95 | 1020.8 |
| 20260502070026 | 38 | 216 | 2.0 | 6.0 | 0.00 | 0.36 | 0.00 | 95 | 1020.8 |
| 20260502065523 | 38 | 216 | 2.0 | 5.0 | 0.00 | 0.36 | 0.00 | 95 | 1020.8 |
| 20260502065249 | 38 | 216 | 2.0 | 5.0 | 0.00 | 0.36 | 0.00 | 95 | 1020.7 |
| 20260502064515 | 38 | 216 | 1.0 | 5.0 | 0.00 | 0.36 | 0.00 | 95 | 1020.6 |
| 20260502064015 | 38 | 216 | 1.0 | 5.0 | 0.00 | 0.36 | 0.00 | 95 | 1020.5 |
| 20260502063515 | 38 | 216 | 1.0 | 5.0 | 0.00 | 0.36 | 0.00 | 95 | 1020.5 |
| 20260502063007 | 38 | 216 | 2.0 | 7.0 | 0.00 | 0.36 | 0.00 | 95 | 1020.5 |
| 20260502062506 | 38 | 216 | 2.0 | 7.0 | 0.00 | 0.36 | 0.00 | 95 | 1020.6 |
| 20260502062225 | 38 | 216 | 2.0 | 7.0 | 0.00 | 0.36 | 0.00 | 95 | 1020.5 |
| 20260502061503 | 38 | 216 | 2.0 | 6.0 | 0.00 | 0.36 | 0.00 | 96 | 1020.5 |
| 20260502061002 | 38 | 0.0 | 0.0 | 0.00 | 0.36 | 0.00 | 96 | 1020.5 | |
| 20260502060501 | 37 | 0.0 | 0.0 | 0.00 | 0.36 | 0.00 | 95 | 1283.6 | |
| 20260502060002 | 37 | 216 | 2.0 | 5.0 | 0.00 | 0.36 | 0.00 | 95 | 1283.6 |
| 20260502055648 | 37 | 216 | 2.0 | 5.0 | 0.00 | 0.36 | 0.36 | 95 | 1020.0 |
| 20260502055642 | 37 | 216 | 2.0 | 7.0 | 0.00 | 0.36 | 0.36 | 95 | 1020.0 |
| 20260502054441 | 37 | 216 | 2.0 | 7.0 | 0.00 | 0.36 | 0.36 | 95 | 1019.7 |
| 20260502053931 | 37 | 216 | 3.0 | 7.0 | 0.00 | 0.36 | 0.36 | 95 | 1019.6 |
| 20260502053429 | 37 | 216 | 3.0 | 7.0 | 0.00 | 0.36 | 0.36 | 95 | 1019.6 |
| 20260502052927 | 37 | 215 | 3.0 | 7.0 | 0.00 | 0.36 | 0.36 | 95 | 1019.4 |
| 20260502052423 | 37 | 215 | 3.0 | 7.0 | 0.00 | 0.36 | 0.36 | 95 | 1019.3 |
| 20260502052131 | 37 | 215 | 3.0 | 7.0 | 0.00 | 0.36 | 0.36 | 95 | 1019.3 |
| 20260502051405 | 37 | 215 | 2.0 | 6.0 | 0.00 | 0.36 | 0.36 | 95 | 1019.3 |
| 20260502050905 | 37 | 215 | 1.0 | 6.0 | 0.00 | 0.36 | 0.36 | 95 | 1019.1 |
| 20260502050406 | 37 | 215 | 2.0 | 6.0 | 0.00 | 0.36 | 0.36 | 95 | 1019.3 |
| 20260502045906 | 37 | 215 | 2.0 | 6.0 | 0.00 | 0.36 | 0.36 | 94 | 1019.1 |
| 20260502045405 | 37 | 213 | 1.0 | 4.0 | 0.00 | 0.36 | 0.36 | 94 | 1019.1 |
| 20260502044902 | 37 | 213 | 1.0 | 5.0 | 0.00 | 0.36 | 0.36 | 94 | 1019.3 |
| 20260502044403 | 38 | 213 | 1.0 | 5.0 | 0.00 | 0.36 | 0.36 | 94 | 1019.1 |
| 20260502043904 | 38 | 213 | 1.0 | 4.0 | 0.00 | 0.36 | 0.36 | 94 | 1019.3 |
| 20260502043401 | 38 | 213 | 0.0 | 3.0 | 0.00 | 0.36 | 0.36 | 94 | 1019.3 |
| 20260502042902 | 38 | 213 | 0.0 | 3.0 | 0.00 | 0.36 | 0.36 | 94 | 1019.5 |
| 20260502042401 | 38 | 213 | 0.0 | 4.0 | 0.00 | 0.36 | 0.36 | 95 | 1019.6 |
| 20260502042121 | 39 | 213 | 1.0 | 5.0 | 0.00 | 0.36 | 0.36 | 95 | 1019.7 |
| 20260502041623 | 39 | 213 | 1.0 | 5.0 | 0.00 | 0.36 | 0.36 | 95 | 1019.6 |
| 20260502040845 | 39 | 213 | 1.0 | 2.0 | 0.00 | 0.36 | 0.36 | 95 | 1019.6 |
| 20260502040330 | 39 | 213 | 1.0 | 2.0 | 0.00 | 0.36 | 0.36 | 95 | 1019.7 |
| 20260502035828 | 39 | 213 | 0.0 | 2.0 | 0.00 | 0.36 | 0.36 | 95 | 1019.6 |
| 20260502035330 | 39 | 213 | 0.0 | 3.0 | 0.00 | 0.36 | 0.36 | 95 | 1019.7 |
| 20260502034830 | 39 | 213 | 0.0 | 4.0 | 0.00 | 0.36 | 0.36 | 95 | 1019.7 |
| 20260502034552 | 40 | 213 | 1.0 | 4.0 | 0.00 | 0.36 | 0.36 | 95 | 1019.7 |
| 20260502033830 | 40 | 213 | 1.0 | 6.0 | 0.00 | 0.36 | 0.36 | 95 | 1019.6 |
| 20260502033330 | 40 | 211 | 2.0 | 6.0 | 0.00 | 0.36 | 0.36 | 95 | 1019.7 |
| 20260502032829 | 40 | 211 | 2.0 | 6.0 | 0.00 | 0.36 | 0.36 | 95 | 1019.6 |
| 20260502032329 | 40 | 211 | 1.0 | 6.0 | 0.00 | 0.36 | 0.36 | 95 | 1019.6 |
| 20260502031830 | 40 | 211 | 0.0 | 4.0 | 0.00 | 0.36 | 0.36 | 95 | 1019.5 |
| 20260502031552 | 40 | 211 | 0.0 | 0.0 | 0.00 | 0.36 | 0.36 | 95 | 1019.5 |
| 20260502030827 | 40 | 211 | 0.0 | 5.0 | 0.00 | 0.36 | 0.36 | 95 | 1019.3 |
| 20260502030548 | 40 | 211 | 1.0 | 6.0 | 0.00 | 0.36 | 0.36 | 95 | 1019.1 |
| 20260502025823 | 40 | 211 | 1.0 | 6.0 | 0.00 | 0.36 | 0.36 | 95 | 1019.1 |
| 20260502025313 | 40 | 210 | 1.0 | 6.0 | 0.00 | 0.36 | 0.36 | 95 | 1019.0 |
| 20260502024811 | 40 | 209 | 2.0 | 6.0 | 0.00 | 0.36 | 0.36 | 95 | 1018.8 |
| 20260502024804 | 40 | 207 | 2.0 | 7.0 | 0.00 | 0.36 | 0.36 | 95 | 1018.7 |
| 20260502023802 | 40 | 207 | 2.0 | 8.0 | 0.00 | 0.36 | 0.36 | 95 | 1018.4 |
| 20260502023303 | 40 | 201 | 2.0 | 8.0 | 0.01 | 0.36 | 0.36 | 95 | 1018.2 |
| 20260502022802 | 40 | 192 | 1.0 | 7.0 | 0.01 | 0.36 | 0.36 | 94 | 1018.0 |
| 20260502022306 | 40 | 190 | 1.0 | 5.0 | 0.01 | 0.36 | 0.36 | 94 | 1017.8 |
| 20260502021752 | 40 | 190 | 0.0 | 3.0 | 0.02 | 0.36 | 0.36 | 94 | 1017.7 |
| 20260502021246 | 40 | 190 | 1.0 | 6.0 | 0.02 | 0.36 | 0.36 | 94 | 1017.8 |
| 20260502020743 | 40 | 189 | 1.0 | 6.0 | 0.02 | 0.36 | 0.36 | 94 | 1017.6 |
| 20260502020230 | 40 | 188 | 1.0 | 5.0 | 0.03 | 0.36 | 0.36 | 94 | 1017.4 |
| 20260502015729 | 40 | 188 | 1.0 | 5.0 | 0.04 | 0.36 | 0.36 | 94 | 1017.7 |
| 20260502015229 | 40 | 182 | 1.0 | 5.0 | 0.04 | 0.36 | 0.36 | 94 | 1017.7 |
| 20260502014726 | 40 | 175 | 2.0 | 7.0 | 0.04 | 0.36 | 0.36 | 94 | 1017.4 |
| 20260502014227 | 40 | 174 | 1.0 | 7.0 | 0.04 | 0.36 | 0.36 | 94 | 1017.4 |
| 20260502013722 | 41 | 173 | 0.0 | 6.0 | 0.04 | 0.36 | 0.35 | 94 | 1017.4 |
| 20260502013221 | 41 | 169 | 1.0 | 6.0 | 0.03 | 0.35 | 0.35 | 93 | 1017.3 |
| 20260502012703 | 41 | 186 | 1.0 | 8.0 | 0.03 | 0.35 | 0.35 | 93 | 1017.3 |
| 20260502012203 | 41 | 199 | 2.0 | 8.0 | 0.03 | 0.35 | 0.35 | 93 | 1017.6 |
| 20260502011704 | 41 | 230 | 1.0 | 6.0 | 0.02 | 0.34 | 0.34 | 94 | 1017.6 |
| 20260502011643 | 42 | 233 | 1.0 | 7.0 | 0.02 | 0.34 | 0.34 | 94 | 1017.3 |
| 20260502010702 | 42 | 233 | 1.0 | 7.0 | 0.02 | 0.34 | 0.34 | 94 | 1017.3 |
| 20260502010203 | 42 | 234 | 1.0 | 5.0 | 0.01 | 0.33 | 0.33 | 94 | 1017.6 |
| 20260502005655 | 42 | 234 | 1.0 | 5.0 | 0.00 | 0.32 | 0.32 | 94 | 1017.6 |
| 20260502005150 | 42 | 234 | 2.0 | 6.0 | 0.00 | 0.32 | 0.32 | 94 | 1017.2 |
| 20260502004905 | 42 | 234 | 3.0 | 8.0 | 0.00 | 0.32 | 0.32 | 93 | 1017.2 |
| 20260502004143 | 42 | 234 | 3.0 | 8.0 | 0.00 | 0.32 | 0.32 | 93 | 1017.2 |
| 20260502003903 | 42 | 230 | 3.0 | 9.0 | 0.00 | 0.32 | 0.32 | 93 | 1017.1 |
| 20260502003143 | 42 | 182 | 3.0 | 9.0 | 0.00 | 0.32 | 0.32 | 92 | 1017.0 |
| 20260502002640 | 42 | 200 | 2.0 | 8.0 | 0.00 | 0.32 | 0.32 | 92 | 1017.0 |
| 20260502002140 | 42 | 205 | 1.0 | 8.0 | 0.00 | 0.32 | 0.32 | 93 | 1017.1 |
| 20260502001856 | 43 | 207 | 0.0 | 6.0 | 0.00 | 0.32 | 0.32 | 93 | 1017.0 |
| 20260502001137 | 43 | 207 | 1.0 | 6.0 | 0.01 | 0.32 | 0.32 | 94 | 1016.8 |
| 20260502000638 | 43 | 207 | 1.0 | 6.0 | 0.01 | 0.32 | 0.32 | 93 | 1016.8 |
| 20260502000133 | 43 | 206 | 1.0 | 6.0 | 0.02 | 0.32 | 0.32 | 93 | 1016.8 |
| 20260501235859 | 43 | 211 | 2.0 | 6.0 | 0.03 | 0.32 | 0.32 | 94 | 1017.0 |
| 20260501235131 | 44 | 211 | 2.0 | 6.0 | 0.05 | 0.32 | 0.32 | 94 | 1016.8 |
| 20260501234857 | 44 | 211 | 2.0 | 6.0 | 0.06 | 0.32 | 0.32 | 95 | 1017.0 |
| 20260501234130 | 43 | 209 | 3.0 | 6.0 | 0.07 | 0.32 | 0.32 | 95 | 1016.8 |
| 20260501233630 | 43 | 206 | 2.0 | 6.0 | 0.08 | 0.32 | 0.32 | 94 | 1016.7 |
| 20260501233131 | 43 | 229 | 2.0 | 7.0 | 0.08 | 0.32 | 0.32 | 95 | 1016.3 |
| 20260501232631 | 43 | 267 | 2.0 | 7.0 | 0.08 | 0.32 | 0.32 | 95 | 1016.2 |
| 20260501232130 | 42 | 297 | 1.0 | 5.0 | 0.08 | 0.32 | 0.32 | 94 | 1016.1 |
| 20260501231630 | 42 | 297 | 1.0 | 4.0 | 0.08 | 0.32 | 0.32 | 94 | 1016.0 |
| 20260501231126 | 42 | 297 | 1.0 | 5.0 | 0.07 | 0.31 | 0.31 | 94 | 1016.1 |
| 20260501230621 | 42 | 297 | 1.0 | 6.0 | 0.06 | 0.30 | 0.30 | 95 | 1015.7 |
| 20260501230122 | 42 | 298 | 1.0 | 6.0 | 0.06 | 0.30 | 0.30 | 94 | 1015.6 |
| 20260501225618 | 41 | 304 | 4.0 | 12.0 | 0.05 | 0.29 | 0.28 | 92 | 1014.9 |
| 20260501225119 | 41 | 305 | 8.0 | 18.0 | 0.03 | 0.27 | 0.27 | 92 | 1015.5 |
| 20260501224622 | 41 | 309 | 9.0 | 18.0 | 0.02 | 0.26 | 0.25 | 92 | 1015.5 |
| 20260501224345 | 42 | 299 | 9.0 | 16.0 | 0.02 | 0.25 | 0.25 | 92 | 1015.5 |
| 20260501223835 | 42 | 286 | 8.0 | 14.0 | 0.01 | 0.24 | 0.24 | 92 | 1015.5 |
| 20260501223115 | 42 | 312 | 7.0 | 14.0 | 0.01 | 0.24 | 0.24 | 93 | 1015.3 |
| 20260501222613 | 42 | 293 | 7.0 | 11.0 | 0.01 | 0.24 | 0.24 | 93 | 1015.1 |
| 20260501222111 | 42 | 306 | 6.0 | 11.0 | 0.02 | 0.24 | 0.24 | 93 | 1014.9 |
| 20260501221611 | 43 | 304 | 5.0 | 10.0 | 0.02 | 0.24 | 0.24 | 93 | 1015.0 |
| 20260501221111 | 43 | 302 | 4.0 | 9.0 | 0.03 | 0.24 | 0.24 | 92 | 1014.9 |
| 20260501221048 | 43 | 299 | 4.0 | 9.0 | 0.04 | 0.24 | 0.24 | 92 | 1014.8 |
| 20260501220557 | 43 | 306 | 4.0 | 8.0 | 0.05 | 0.24 | 0.24 | 92 | 1014.9 |
| 20260501215823 | 43 | 319 | 3.0 | 7.0 | 0.08 | 0.24 | 0.24 | 93 | 1015.0 |
| 20260501215103 | 43 | 313 | 4.0 | 8.0 | 0.11 | 0.24 | 0.24 | 92 | 1015.0 |
| 20260501214602 | 43 | 320 | 4.0 | 11.0 | 0.12 | 0.24 | 0.24 | 93 | 1015.0 |
| 20260501214103 | 43 | 313 | 5.0 | 11.0 | 0.14 | 0.23 | 0.23 | 93 | 1015.0 |
| 20260501213603 | 43 | 300 | 4.0 | 9.0 | 0.14 | 0.23 | 0.23 | 93 | 1015.0 |
| 20260501213103 | 43 | 297 | 5.0 | 11.0 | 0.14 | 0.23 | 0.23 | 93 | 1015.0 |
| 20260501212601 | 43 | 327 | 5.0 | 13.0 | 0.14 | 0.23 | 0.23 | 93 | 1014.8 |
| 20260501212054 | 42 | 322 | 6.0 | 13.0 | 0.13 | 0.22 | 0.22 | 92 | 1014.4 |
| 20260501211544 | 42 | 320 | 6.0 | 13.0 | 0.13 | 0.22 | 0.22 | 91 | 1014.4 |
| 20260501211044 | 42 | 315 | 6.0 | 13.0 | 0.12 | 0.21 | 0.20 | 91 | 1014.3 |
| 20260501210810 | 42 | 312 | 6.0 | 13.0 | 0.11 | 0.20 | 0.19 | 90 | 1014.3 |
| 20260501210307 | 42 | 329 | 6.0 | 13.0 | 0.10 | 0.19 | 0.18 | 89 | 1014.3 |
| 20260501205543 | 42 | 311 | 7.0 | 11.0 | 0.06 | 0.15 | 0.15 | 87 | 1014.5 |
| 20260501205042 | 43 | 294 | 7.0 | 15.0 | 0.04 | 0.13 | 0.13 | 85 | 1014.6 |
| 20260501204543 | 44 | 299 | 8.0 | 20.0 | 0.02 | 0.11 | 0.11 | 82 | 1015.0 |
| 20260501204039 | 46 | 283 | 7.0 | 20.0 | 0.00 | 0.09 | 0.09 | 76 | 1015.7 |
| 20260501203539 | 47 | 311 | 7.0 | 14.0 | 0.00 | 0.09 | 0.09 | 69 | 1016.1 |
| 20260501203037 | 48 | 308 | 7.0 | 14.0 | 0.00 | 0.09 | 0.09 | 64 | 1016.6 |
| 20260501202536 | 50 | 303 | 6.0 | 11.0 | 0.00 | 0.09 | 0.09 | 61 | 1017.4 |
| 20260501202033 | 52 | 314 | 4.0 | 11.0 | 0.00 | 0.09 | 0.09 | 60 | 1018.3 |
| 20260501201533 | 52 | 242 | 5.0 | 13.0 | 0.00 | 0.09 | 0.09 | 58 | 1018.3 |
| 20260501201031 | 52 | 226 | 5.0 | 13.0 | 0.00 | 0.09 | 0.09 | 59 | 1018.2 |
| 20260501200533 | 52 | 186 | 5.0 | 12.0 | 0.00 | 0.09 | 0.09 | 60 | 1017.9 |
| 20260501200516 | 53 | 159 | 6.0 | 14.0 | 0.00 | 0.09 | 0.09 | 59 | 1018.0 |
| 20260501195752 | 53 | 178 | 6.0 | 14.0 | 0.00 | 0.09 | 0.09 | 58 | 1018.2 |
| 20260501195259 | 53 | 207 | 6.0 | 13.0 | 0.00 | 0.09 | 0.09 | 59 | 1018.2 |
| 20260501194748 | 53 | 231 | 6.0 | 15.0 | 0.00 | 0.09 | 0.09 | 61 | 1017.9 |
| 20260501194737 | 53 | 178 | 6.0 | 15.0 | 0.00 | 0.09 | 0.09 | 60 | 1018.2 |
| 20260501193532 | 52 | 191 | 5.0 | 10.0 | 0.00 | 0.09 | 0.09 | 64 | 1017.8 |
| 20260501193032 | 51 | 221 | 5.0 | 11.0 | 0.00 | 0.09 | 0.09 | 65 | 1017.6 |
| 20260501192530 | 51 | 210 | 6.0 | 11.0 | 0.00 | 0.09 | 0.09 | 65 | 1017.3 |
| 20260501192254 | 51 | 242 | 6.0 | 12.0 | 0.00 | 0.09 | 0.09 | 65 | 1017.6 |
| 20260501191532 | 51 | 211 | 6.0 | 12.0 | 0.00 | 0.09 | 0.09 | 66 | 1017.7 |
| 20260501191037 | 51 | 212 | 6.0 | 10.0 | 0.00 | 0.09 | 0.09 | 65 | 1017.6 |
| 20260501190744 | 51 | 216 | 5.0 | 12.0 | 0.00 | 0.09 | 0.09 | 65 | 1017.8 |
| 20260501190022 | 51 | 216 | 5.0 | 12.0 | 0.00 | 0.09 | 0.09 | 67 | 1017.8 |
| 20260501185522 | 51 | 223 | 5.0 | 13.0 | 0.00 | 0.09 | 0.09 | 65 | 1017.9 |
| 20260501185236 | 51 | 206 | 6.0 | 13.0 | 0.00 | 0.09 | 0.09 | 65 | 1017.8 |
| 20260501184504 | 51 | 207 | 5.0 | 12.0 | 0.00 | 0.09 | 0.09 | 65 | 1017.8 |
| 20260501184002 | 52 | 202 | 5.0 | 12.0 | 0.00 | 0.09 | 0.09 | 65 | 1017.9 |
| 20260501183502 | 52 | 202 | 5.0 | 11.0 | 0.00 | 0.09 | 0.09 | 66 | 1017.9 |
| 20260501183008 | 52 | 196 | 5.0 | 10.0 | 0.00 | 0.09 | 0.09 | 67 | 1017.8 |
| 20260501182504 | 51 | 217 | 6.0 | 15.0 | 0.00 | 0.09 | 0.09 | 69 | 1017.7 |
| 20260501182001 | 51 | 183 | 5.0 | 15.0 | 0.00 | 0.09 | 0.09 | 68 | 1017.8 |
| 20260501181457 | 51 | 244 | 5.0 | 11.0 | 0.00 | 0.09 | 0.09 | 72 | 1017.8 |
| 20260501180952 | 51 | 216 | 6.0 | 12.0 | 0.00 | 0.09 | 0.09 | 72 | 1017.6 |
| 20260501180450 | 51 | 219 | 7.0 | 12.0 | 0.00 | 0.09 | 0.09 | 72 | 1017.6 |
| 20260501175946 | 51 | 213 | 7.0 | 14.0 | 0.00 | 0.09 | 0.09 | 71 | 1017.6 |
| 20260501175445 | 51 | 182 | 7.0 | 14.0 | 0.00 | 0.09 | 0.09 | 69 | 1017.7 |
| 20260501174946 | 51 | 210 | 6.0 | 12.0 | 0.00 | 0.09 | 0.09 | 73 | 1017.4 |
| 20260501174445 | 50 | 180 | 6.0 | 14.0 | 0.00 | 0.09 | 0.09 | 73 | 1017.3 |
| 20260501173946 | 50 | 193 | 6.0 | 14.0 | 0.00 | 0.09 | 0.09 | 71 | 1017.2 |
| 20260501173445 | 50 | 243 | 6.0 | 11.0 | 0.00 | 0.09 | 0.09 | 71 | 1017.3 |
| 20260501173434 | 51 | 174 | 6.0 | 11.0 | 0.00 | 0.09 | 0.09 | 71 | 1017.6 |
| 20260501172703 | 51 | 184 | 6.0 | 11.0 | 0.00 | 0.09 | 0.09 | 69 | 1017.4 |
| 20260501172202 | 51 | 200 | 7.0 | 12.0 | 0.00 | 0.09 | 0.09 | 68 | 1017.4 |
| 20260501171442 | 51 | 182 | 6.0 | 12.0 | 0.00 | 0.09 | 0.09 | 69 | 1017.4 |
| 20260501170938 | 51 | 191 | 6.0 | 10.0 | 0.00 | 0.09 | 0.09 | 68 | 1017.7 |
| 20260501170438 | 52 | 169 | 7.0 | 11.0 | 0.00 | 0.09 | 0.09 | 65 | 1017.9 |
| 20260501165935 | 53 | 190 | 6.0 | 11.0 | 0.00 | 0.09 | 0.09 | 68 | 1018.3 |
| 20260501165433 | 53 | 161 | 5.0 | 11.0 | 0.00 | 0.09 | 0.09 | 70 | 1018.3 |
| 20260501164932 | 52 | 229 | 4.0 | 8.0 | 0.00 | 0.09 | 0.09 | 75 | 1017.7 |
| 20260501164431 | 51 | 244 | 3.0 | 8.0 | 0.00 | 0.09 | 0.09 | 73 | 1017.3 |
| 20260501163931 | 51 | 34 | 1.0 | 6.0 | 0.00 | 0.09 | 0.09 | 68 | 1017.2 |
| 20260501163430 | 50 | 47 | 1.0 | 6.0 | 0.00 | 0.09 | 0.09 | 60 | 1017.0 |
| 20260501162932 | 51 | 47 | 2.0 | 6.0 | 0.00 | 0.09 | 0.09 | 60 | 1017.1 |
| 20260501162431 | 51 | 47 | 2.0 | 6.0 | 0.00 | 0.09 | 0.09 | 63 | 1017.2 |
| 20260501162200 | 51 | 46 | 3.0 | 6.0 | 0.00 | 0.09 | 0.09 | 61 | 1017.3 |
| 20260501161431 | 51 | 32 | 2.0 | 6.0 | 0.00 | 0.09 | 0.09 | 62 | 1017.2 |
| 20260501161159 | 51 | 28 | 1.0 | 6.0 | 0.00 | 0.09 | 0.09 | 62 | 1016.8 |
| 20260501160430 | 50 | 24 | 2.0 | 7.0 | 0.00 | 0.09 | 0.09 | 64 | 1016.5 |
| 20260501155931 | 49 | 24 | 2.0 | 7.0 | 0.00 | 0.09 | 0.09 | 66 | 1016.1 |
| 20260501155432 | 48 | 52 | 1.0 | 6.0 | 0.00 | 0.09 | 0.09 | 73 | 1015.6 |
| 20260501154932 | 47 | 53 | 1.0 | 6.0 | 0.00 | 0.09 | 0.09 | 72 | 1014.9 |
| 20260501154430 | 46 | 53 | 0.0 | 0.0 | 0.00 | 0.09 | 0.09 | 76 | 1014.4 |
| 20260501154148 | 45 | 53 | 0.0 | 0.0 | 0.00 | 0.09 | 0.09 | 75 | 1014.2 |
| 20260501153415 | 44 | 53 | 0.0 | 0.0 | 0.00 | 0.09 | 0.09 | 77 | 1013.9 |
| 20260501153326 | 44 | 53 | 0.0 | 0.0 | 0.00 | 0.09 | 0.09 | 79 | 1013.3 |
| 20260501153053 | 44 | 53 | 0.0 | 0.0 | 0.00 | 0.09 | 0.09 | 78 | 1013.6 |